User: anonymous   Login
Location: Morisset
(33.1080°S, 151.4871°E)
Time: 12:27:30
(UTC+00:00)
Language:

Cosmos 1758 - Orbit

View from above orbital plane
View from above orbital plane
View from above satellite
View from above satellite

Ground track
Ground track

The orbit data is extracted from the following two-line orbital elements,

1 16791U 86046A   21137.92644724  .00000191  00000-0  11326-4 0  9998
2 16791  82.4709  77.1045 0014943 255.5100 104.4469 15.05304114900572
Epoch (UTC): 17 May 2021 22:14:05
Eccentricity: 0.0014943
inclination: 82.4709°
perigee height: 540 km
apogee height: 561 km
right ascension of ascending node: 77.1045°
argument of perigee: 255.5100°
revolutions per day: 15.05304114
mean anomaly at epoch: 104.4469°
orbit number at epoch: 90057

The dashed part of the orbit path shows where the satellite is in the earth's shadow,  

DLR